Weather History for Chicago, IL

Change the Weather History Date:

Tuesday, January 14, 2014

  Actual Average Record
Temperature  
Mean Temperature 29 °F 24 °F  
Max Temperature 35 °F 31 °F 60 °F (1928)
Min Temperature 22 °F 16 °F -14 °F (1979)
Degree Days  
Heating Degree Days 36 41  
Month to date heating degree days 666 574  
Since 1 July heating degree days 3232 2985  
Cooling Degree Days 0 0  
Month to date cooling degree days 0 0  
Year to date cooling degree days 0 0  
Moisture  
Dew Point 21 °F    
Average Humidity 70    
Maximum Humidity 82    
Minimum Humidity 58    
Precipitation  
Precipitation 0.01 in 0.06 in 1.10 in (1871)
Month to date precipitation 2.20 0.85  
Year to date precipitation 2.20 0.85  
Snow  
Snow T in 0.30 in 6.30 in (1929)
Month to date snowfall 19.9 4.6  
Since 1 July snowfall 35.0 14.5  
Snow Depth 0.00 in    
Sea Level Pressure  
Sea Level Pressure 29.72 in    
Wind  
Wind Speed 15 mph (WSW)    
Max Wind Speed 33 mph    
Max Gust Speed 44 mph    
Visibility 6 miles    
Events Snow    
T = Trace of Precipitation, MM = Missing Value Source: NWS Daily Summary

Daily Weather History Graph

Daily Weather History Graph

Search for Another Location

Airport:

Trip Planner

Search our weather history database for the weather conditions in past years. The results will help you decide how hot, cold, wet, or windy it might be!

Date:

Astronomy

Jan. 14, 2014 Rise Set
Actual Time 7:17 AM CST 4:44 PM CST
Civil Twilight 6:46 AM CST 5:15 PM CST
Nautical Twilight 6:12 AM CST 5:49 PM CST
Astronomical Twilight 5:38 AM CST 6:23 PM CST
Moon 3:49 PM CST (1/14) 5:51 AM CST (1/14)
Length of Visible Light 10h 28m
Length of Day
9h 26m
Waxing Gibbous, 98% of the Moon is Illuminated
Jan 14
Waxing Gibbous
Jan 15
Full
Jan 23
Last Quarter
Jan 30
New
Feb 6
First Quarter

Hourly Weather History & Observations

Time (CST) Temp. Windchill Dew Point Humidity Pressure Visibility Wind Dir Wind Speed Gust Speed Precip Events Conditions
12:51 AM 26.1 °F 20.5 °F 19.9 °F 78% 29.76 in 10.0 mi SW 4.6 mph - N/A   Mostly Cloudy
1:51 AM 25.0 °F 20.7 °F 19.9 °F 81% 29.77 in 9.0 mi South 3.5 mph - N/A   Scattered Clouds
2:51 AM 26.1 °F 20.5 °F 19.9 °F 78% 29.75 in 8.0 mi SSW 4.6 mph - N/A   Scattered Clouds
3:51 AM 24.1 °F 17.0 °F 19.9 °F 84% 29.72 in 7.0 mi SSW 5.8 mph - N/A   Partly Cloudy
4:51 AM 25.0 °F 17.1 °F 19.9 °F 81% 29.71 in 6.0 mi South 6.9 mph - N/A   Haze
5:51 AM 26.6 °F 17.5 °F 21.2 °F 80% 29.65 in 6.0 mi SSE 9.2 mph - N/A   Haze
6:51 AM 27.0 °F 16.7 °F 21.9 °F 81% 29.66 in 8.0 mi South 11.5 mph - N/A   Scattered Clouds
7:51 AM 28.9 °F 18.6 °F 23.0 °F 78% 29.64 in 8.0 mi South 12.7 mph - N/A   Mostly Cloudy
8:51 AM 33.1 °F 23.0 °F 21.9 °F 64% 29.63 in 10.0 mi South 15.0 mph - N/A   Overcast
9:51 AM 34.0 °F 23.4 °F 25.0 °F 70% 29.64 in 7.0 mi South 17.3 mph 25.3 mph 0.00 in Snow Light Snow
9:54 AM 34.0 °F 24.2 °F 25.0 °F 70% 29.62 in 7.0 mi SSW 15.0 mph 25.3 mph 0.00 in Snow Light Snow
10:14 AM 34.0 °F 22.7 °F 26.1 °F 73% 29.62 in 6.0 mi SSW 19.6 mph 31.1 mph 0.00 in Snow Light Snow
10:21 AM 34.0 °F 23.4 °F 27.0 °F 75% 29.62 in 2.5 mi SSW 17.3 mph 31.1 mph 0.00 in Snow Light Snow
10:38 AM 34.0 °F 23.4 °F 27.0 °F 75% 29.61 in 3.0 mi SSW 17.3 mph 23.0 mph 0.00 in Snow Light Snow
10:51 AM 34.0 °F 22.7 °F 28.0 °F 79% 29.63 in 2.5 mi SSW 19.6 mph - 0.00 in Snow Light Snow
10:54 AM 34.0 °F 23.0 °F 28.0 °F 79% 29.61 in 1.2 mi SSW 18.4 mph - 0.00 in Snow Light Snow
11:18 AM 34.0 °F 23.0 °F 28.0 °F 79% 29.60 in 3.0 mi SSW 18.4 mph 26.5 mph 0.00 in Snow Light Snow
11:35 AM 34.0 °F 22.7 °F 28.9 °F 82% 29.59 in 3.0 mi SW 19.6 mph 26.5 mph 0.01 in Snow Light Snow
11:51 AM 34.0 °F 23.8 °F 28.9 °F 82% 29.61 in 3.0 mi SW 16.1 mph 23.0 mph 0.01 in Snow Light Snow
12:04 PM 34.0 °F 24.6 °F 28.9 °F 82% 29.58 in 5.0 mi SW 13.8 mph 21.9 mph 0.00 in Snow Light Snow
12:31 PM 35.1 °F 24.8 °F 28.9 °F 78% 29.58 in 10.0 mi WSW 17.3 mph 20.7 mph 0.00 in   Overcast
12:51 PM 35.1 °F 23.5 °F 28.0 °F 76% 29.60 in 10.0 mi West 21.9 mph 33.4 mph 0.00 in   Overcast
1:51 PM 32.0 °F 19.5 °F 21.9 °F 66% 29.65 in 10.0 mi West 21.9 mph 35.7 mph N/A   Overcast
2:51 PM 30.9 °F 16.2 °F 18.0 °F 59% 29.68 in 10.0 mi West 29.9 mph 40.3 mph N/A   Overcast
3:51 PM 28.9 °F 13.7 °F 17.1 °F 61% 29.70 in 10.0 mi West 28.8 mph 36.8 mph N/A   Overcast
4:51 PM 28.9 °F 15.8 °F 16.0 °F 58% 29.73 in 10.0 mi West 20.7 mph 31.1 mph N/A   Overcast
5:51 PM 27.0 °F 12.5 °F 16.0 °F 63% 29.75 in 10.0 mi West 23.0 mph 35.7 mph N/A   Overcast
6:51 PM 26.1 °F 10.4 °F 15.1 °F 63% 29.78 in 10.0 mi West 26.5 mph 34.5 mph N/A   Overcast
7:51 PM 25.0 °F 9.9 °F 15.1 °F 66% 29.81 in 10.0 mi West 23.0 mph 29.9 mph N/A   Overcast
8:38 PM 24.1 °F 10.1 °F 15.1 °F 69% 29.80 in 9.0 mi West 18.4 mph 28.8 mph 0.00 in Snow Light Snow
8:51 PM 24.1 °F 10.1 °F 15.1 °F 69% 29.83 in 9.0 mi West 18.4 mph 27.6 mph 0.00 in Snow Light Snow
9:22 PM 24.1 °F 11.5 °F 16.0 °F 71% 29.81 in 4.0 mi West 15.0 mph 25.3 mph 0.00 in Snow Light Snow
9:30 PM 23.0 °F 9.2 °F 16.0 °F 74% 29.82 in 2.0 mi West 17.3 mph - 0.00 in Snow Light Snow
9:43 PM 23.0 °F 9.2 °F 16.0 °F 74% 29.82 in 2.0 mi West 17.3 mph - 0.00 in Snow Light Snow
9:51 PM 23.0 °F 9.6 °F 16.0 °F 74% 29.85 in 3.0 mi West 16.1 mph - 0.00 in Snow Light Snow
10:16 PM 23.0 °F 8.7 °F 16.0 °F 74% 29.83 in 5.0 mi West 18.4 mph 26.5 mph 0.00 in Snow Light Snow
10:44 PM 23.0 °F 9.2 °F 15.1 °F 72% 29.84 in 6.0 mi WNW 17.3 mph 23.0 mph 0.00 in Snow Light Snow
10:51 PM 23.0 °F 9.6 °F 15.1 °F 72% 29.87 in 6.0 mi WNW 16.1 mph 24.2 mph 0.00 in Snow Light Snow
11:10 PM 21.9 °F 8.2 °F 14.0 °F 72% 29.84 in 6.0 mi WNW 16.1 mph 27.6 mph 0.00 in Snow Light Snow
11:28 PM 21.9 °F 7.8 °F 15.1 °F 75% 29.85 in 3.0 mi WNW 17.3 mph - 0.00 in Snow Light Snow
11:40 PM 21.9 °F 8.7 °F 15.1 °F 75% 29.85 in 4.0 mi WNW 15.0 mph 26.5 mph 0.00 in Snow Light Snow
11:51 PM 21.9 °F 8.2 °F 15.1 °F 75% 29.88 in 3.0 mi WNW 16.1 mph - 0.00 in Snow Light Snow